[[{"header":{"parameterUnit":"m.s-1","parameterCategory":1,"la1":30.2991,"la2":30.254,"lo1":-89.0895,"lo2":-89.0444,"dy":0.0017,"dx":0.0017,"nx":28,"ny":28,"refTime":"2024-06-14T03:00:00:Z","depth":0,"parameterNumber":2,"parameterNumberName":"U-component_of_WINDS"},"data":[0,0,0,0,0,0,0,0,0,0,0,0,0,0,0,0,0,0,0,0,0,0,0,0,0,0,0,0,0,0,0,0,0,0,0,0,0,0,0,0,0,0,0,0,0,0,0,0,0,0,0,0,0,0,0,0,0,0,-0.1617,-0.1617,0,-0.1564,-0.1564,-0.1563,-0.1525,-0.1525,-0.1524,-0.1524,-0.1471,-0.147,-0.1469,0,0,0,0,0,0,0,0,0,0,0,0,0,-0.1687,-0.1686,-0.1618,-0.1617,-0.1616,-0.1564,-0.1564,-0.1563,-0.1525,-0.1525,-0.1524,-0.1524,-0.1472,-0.1471,-0.1469,0,0,0,0,0,0,0,0,0,0,0,0,0,-0.1648,-0.1686,-0.1618,-0.1591,-0.1588,-0.1565,-0.1564,-0.1563,-0.1525,-0.1525,-0.1524,-0.1524,-0.1472,-0.1471,-0.1469,-0.1468,0,0,-0.1464,-0.1463,0,0,0,0,0,0,0,0,-0.165,-0.1645,-0.1596,-0.1593,-0.159,-0.1551,-0.1569,-0.1531,-0.1525,-0.1549,-0.1524,-0.1524,-0.1498,-0.1495,-0.1486,-0.1466,-0.1463,-0.1464,-0.1463,-0.1462,-0.1462,0,0,0,0,0,0,0,-0.1653,-0.1648,-0.1596,-0.1595,-0.1591,-0.1582,-0.1576,-0.1562,-0.1527,-0.1547,-0.1544,-0.1538,-0.1497,-0.1487,-0.1484,-0.1463,-0.1464,-0.1462,-0.1461,-0.1461,-0.1438,-0.1438,0,0,0,0,0,0,-0.166,-0.165,-0.1598,-0.1595,-0.1619,-0.1581,-0.1574,-0.1564,-0.1527,-0.1521,-0.1539,-0.1537,-0.149,-0.1486,-0.1482,-0.1478,-0.1462,-0.1461,-0.146,-0.1438,-0.1438,-0.1439,0,0,0,0,0,0,-0.1661,-0.1655,-0.16,-0.1622,-0.1614,-0.158,-0.1569,-0.1563,-0.1554,-0.1521,-0.1515,-0.1536,-0.149,-0.1484,-0.1471,-0.1476,-0.146,-0.1458,-0.1437,-0.1438,-0.1438,-0.147,0,0,0,0,0,0,-0.1664,-0.1656,-0.1655,-0.1622,-0.1613,-0.1591,-0.1569,-0.1562,-0.1551,-0.1547,-0.1516,-0.1511,-0.1489,-0.1474,-0.147,-0.1473,-0.1457,-0.1437,-0.1437,-0.1438,-0.1469,-0.1472,-0.1474,0,0,0,0,0,-0.1666,-0.1667,-0.1656,-0.165,-0.1611,-0.1591,-0.1586,-0.156,-0.1551,-0.155,-0.1529,-0.1512,-0.1476,-0.1473,-0.1468,-0.1471,-0.1436,-0.1437,-0.1438,-0.1467,-0.1471,-0.1474,0,0,0,0,0,0,-0.1703,-0.1662,-0.1649,-0.1639,-0.1619,-0.1584,-0.1582,-0.1566,-0.1548,-0.1546,-0.1516,-0.1509,-0.1499,-0.1483,-0.1481,-0.1467,-0.1454,-0.1454,-0.1478,-0.1481,-0.1484,-0.1488,-0.1456,0,0,0,0,0,-0.171,-0.1696,-0.1662,-0.1656,-0.1647,-0.1616,-0.1607,-0.1589,-0.1566,-0.1558,-0.1536,-0.1515,-0.1499,-0.1489,-0.1473,-0.1466,-0.1458,-0.1465,-0.1468,-0.1471,-0.1471,-0.1465,-0.1468,-0.1441,-0.1441,-0.1441,0,0,-0.1724,-0.17,-0.1694,-0.1663,-0.1645,-0.1632,-0.1609,-0.1597,-0.1586,-0.1556,-0.1542,-0.1525,-0.15,-0.149,-0.1484,-0.1477,-0.1476,-0.1472,-0.1474,-0.1473,-0.1467,-0.1469,-0.1471,-0.1442,-0.1442,-0.1442,0,0,-0.1744,-0.1724,-0.1717,-0.1699,-0.1672,-0.1651,-0.165,-0.1618,-0.1605,-0.159,-0.1567,-0.1554,-0.1528,-0.1511,-0.1498,-0.151,-0.1493,-0.1505,-0.1521,-0.1516,-0.1518,-0.1519,-0.1523,-0.1525,-0.1506,-0.1506,-0.1506,0,-0.1765,-0.1744,-0.1716,-0.1704,-0.1691,-0.1662,-0.1654,-0.1638,-0.1607,-0.1599,-0.1591,-0.1556,-0.1537,-0.1522,-0.1525,-0.1516,-0.1513,-0.1509,-0.152,-0.1521,-0.1522,-0.1525,-0.1527,-0.1507,-0.1507,-0.1507,-0.1507,0,-0.1771,-0.1757,-0.1754,-0.1724,-0.1711,-0.1701,-0.1672,-0.1662,-0.1645,-0.1626,-0.1611,-0.1587,-0.1564,-0.156,-0.1544,-0.1542,-0.1538,-0.1525,-0.1511,-0.1527,-0.1529,-0.153,-0.151,-0.1509,-0.1509,-0.1508,0,0,-0.1813,-0.1766,-0.1766,-0.1751,-0.1718,-0.1707,-0.1696,-0.1673,-0.1665,-0.1644,-0.1634,-0.1611,-0.1599,-0.1585,-0.1567,-0.1562,-0.1572,-0.1549,-0.1548,-0.1554,-0.1568,-0.1578,-0.158,-0.156,-0.156,-0.1561,-0.157,0,-0.1827,-0.1805,-0.1779,-0.1766,-0.1752,-0.1723,-0.1714,-0.1693,-0.1674,-0.1659,-0.1639,-0.1623,-0.1608,-0.1599,-0.1594,-0.1572,-0.1574,-0.1571,-0.1551,-0.155,-0.1558,-0.1581,-0.1592,-0.1602,-0.1571,-0.1571,-0.1571,0,-0.184,-0.182,-0.1806,-0.1773,-0.1766,-0.1758,-0.1734,-0.1721,-0.1696,-0.1683,-0.1667,-0.1646,-0.1633,-0.1621,-0.1602,-0.16,-0.159,-0.1578,-0.1578,-0.1575,-0.1562,-0.1579,-0.1604,-0.1606,-0.1572,-0.1572,-0.1572,0,-0.1872,-0.1841,-0.1828,-0.1816,-0.1778,-0.1773,-0.1757,-0.1731,-0.1719,-0.1699,-0.169,-0.1669,-0.1657,-0.1641,-0.1616,-0.1609,-0.16,-0.1585,-0.1588,-0.1589,-0.1588,-0.1588,-0.1612,-0.1582,-0.1582,-0.1582,-0.1582,0,-0.189,-0.1882,-0.1841,-0.1833,-0.1823,-0.1794,-0.1785,-0.1766,-0.1744,-0.1731,-0.1706,-0.1695,-0.1662,-0.1647,-0.1627,-0.1614,-0.161,-0.1598,-0.1593,-0.16,-0.1602,-0.1594,-0.1592,-0.1582,-0.1582,-0.1582,-0.1582,0,-0.1924,-0.1896,-0.188,-0.1844,-0.1835,-0.1829,-0.1799,-0.179,-0.177,-0.1754,-0.1749,-0.1717,-0.1698,-0.1671,-0.1645,-0.1631,-0.1621,-0.1613,-0.1629,-0.1626,-0.163,-0.163,-0.165,-0.1651,-0.162,-0.1621,-0.1621,0,-0.1937,-0.193,-0.1893,-0.1883,-0.1868,-0.1851,-0.1838,-0.1808,-0.1796,-0.1766,-0.1761,-0.174,-0.1722,-0.1693,-0.1668,-0.1647,-0.1638,-0.1646,-0.1634,-0.1642,-0.1637,-0.1638,-0.1637,-0.1649,-0.1649,-0.165,-0.165,0,-0.1964,-0.195,-0.1932,-0.1909,-0.1894,-0.1874,-0.1854,-0.1847,-0.1812,-0.18,-0.178,-0.1765,-0.1737,-0.1717,-0.1692,-0.1676,-0.1657,-0.1654,-0.1653,-0.1661,-0.167,-0.1665,-0.1636,-0.1653,-0.1653,-0.1653,-0.1653,-0.1652,-0.1987,-0.1979,-0.1952,-0.1932,-0.1913,-0.1894,-0.1884,-0.1861,-0.1844,-0.1819,-0.1802,-0.1783,-0.1757,-0.1722,-0.1706,-0.1691,-0.1683,-0.1683,-0.1683,-0.1683,-0.1685,-0.1673,-0.1687,-0.1686,-0.1686,-0.1686,-0.1686,0,-0.2012,-0.1993,-0.1975,-0.1946,-0.1931,-0.1914,-0.189,-0.1878,-0.1861,-0.1838,-0.1821,-0.1797,-0.1777,-0.1749,-0.1727,-0.172,-0.171,-0.1715,-0.1715,-0.1711,-0.1694,-0.1696,-0.1722,-0.1722,-0.1722,-0.1722,-0.1722,-0.1722,-0.2023,-0.2008,-0.1991,-0.1967,-0.1948,-0.1928,-0.1916,-0.1898,-0.188,-0.1855,-0.1837,-0.1819,-0.1794,-0.1769,-0.175,-0.1742,-0.1735,-0.1742,-0.1732,-0.1716,-0.1713,-0.1709,-0.1712,-0.1741,-0.1741,-0.175,-0.175,-0.1751]},{"header":{"parameterUnit":"m.s-1","parameterCategory":1,"la1":30.2991,"la2":30.254,"lo1":-89.0895,"lo2":-89.0444,"dy":0.0017,"dx":0.0017,"nx":28,"ny":28,"refTime":"2024-06-14T03:00:00:Z","depth":0,"parameterNumber":3,"parameterNumberName":"V-component_of_WINDS"},"data":[0,0,0,0,0,0,0,0,0,0,0,0,0,0,0,0,0,0,0,0,0,0,0,0,0,0,0,0,0,0,0,0,0,0,0,0,0,0,0,0,0,0,0,0,0,0,0,0,0,0,0,0,0,0,0,0,0,0,-1.0564,-1.0566,0,-1.0767,-1.0769,-1.0771,-1.0868,-1.0868,-1.0868,-1.0868,-1.1076,-1.1082,-1.1087,0,0,0,0,0,0,0,0,0,0,0,0,0,-1.026,-1.0265,-1.0564,-1.0566,-1.0569,-1.0766,-1.0769,-1.0772,-1.0868,-1.0868,-1.0868,-1.0868,-1.1074,-1.1081,-1.1088,0,0,0,0,0,0,0,0,0,0,0,0,0,-1.042,-1.0267,-1.0563,-1.0641,-1.065,-1.0766,-1.0769,-1.0773,-1.0868,-1.0868,-1.0868,-1.0868,-1.1072,-1.108,-1.1089,-1.1144,0,0,-1.1115,-1.1118,0,0,0,0,0,0,0,0,-1.0411,-1.0431,-1.0627,-1.0636,-1.0646,-1.0792,-1.0739,-1.0897,-1.0868,-1.0785,-1.0868,-1.0868,-1.0982,-1.0998,-1.1036,-1.1153,-1.1162,-1.1115,-1.112,-1.1124,-1.1126,0,0,0,0,0,0,0,-1.04,-1.0423,-1.0644,-1.0629,-1.0641,-1.0665,-1.0688,-1.0769,-1.0882,-1.0793,-1.08,-1.0823,-1.0987,-1.1028,-1.1042,-1.1165,-1.1115,-1.1123,-1.1128,-1.1131,-1.1338,-1.1339,0,0,0,0,0,0,-1.0376,-1.0413,-1.0638,-1.065,-1.0526,-1.0671,-1.0696,-1.0745,-1.0881,-1.0902,-1.0823,-1.0826,-1.1013,-1.1032,-1.1049,-1.1123,-1.1124,-1.1132,-1.1137,-1.1338,-1.1338,-1.1339,0,0,0,0,0,0,-1.0369,-1.0395,-1.063,-1.0534,-1.0566,-1.0676,-1.0731,-1.0749,-1.079,-1.0904,-1.0925,-1.0843,-1.1014,-1.1038,-1.112,-1.1132,-1.1136,-1.1143,-1.1337,-1.1338,-1.1339,-1.127,0,0,0,0,0,0,-1.036,-1.0392,-1.0414,-1.0534,-1.057,-1.0696,-1.0731,-1.0753,-1.0804,-1.0811,-1.0929,-1.0948,-1.1016,-1.1106,-1.1128,-1.1143,-1.115,-1.1337,-1.1338,-1.1338,-1.1272,-1.1268,-1.1265,0,0,0,0,0,-1.0349,-1.0387,-1.0415,-1.0441,-1.06,-1.0696,-1.0717,-1.0794,-1.0805,-1.0828,-1.0901,-1.0945,-1.1126,-1.1114,-1.1139,-1.1157,-1.1336,-1.1337,-1.1338,-1.1273,-1.1269,-1.1266,0,0,0,0,0,0,-1.0266,-1.0404,-1.0436,-1.0514,-1.0593,-1.0712,-1.0744,-1.0787,-1.0864,-1.0868,-1.096,-1.0985,-1.1059,-1.1117,-1.11,-1.1218,-1.1236,-1.1242,-1.1178,-1.1175,-1.1171,-1.1156,-1.1157,0,0,0,0,0,-1.0256,-1.0323,-1.044,-1.0497,-1.0535,-1.0632,-1.0677,-1.0729,-1.0815,-1.0849,-1.0928,-1.1009,-1.1085,-1.1133,-1.1209,-1.128,-1.1308,-1.1305,-1.1302,-1.1299,-1.1303,-1.1346,-1.1346,-1.1342,-1.1342,-1.1342,0,0,-1.0238,-1.0321,-1.0358,-1.0483,-1.055,-1.0617,-1.066,-1.0729,-1.078,-1.0859,-1.0942,-1.1002,-1.1099,-1.1176,-1.1214,-1.1226,-1.131,-1.13,-1.1296,-1.1303,-1.1347,-1.1347,-1.1347,-1.1343,-1.1343,-1.1342,0,0,-1.0238,-1.0308,-1.0364,-1.043,-1.0531,-1.0596,-1.0608,-1.0722,-1.0766,-1.085,-1.0911,-1.0973,-1.1101,-1.1168,-1.1218,-1.1243,-1.1287,-1.1266,-1.1249,-1.129,-1.129,-1.1291,-1.1301,-1.1303,-1.1269,-1.1269,-1.1269,0,-1.0203,-1.0306,-1.0387,-1.0453,-1.0506,-1.058,-1.0638,-1.0698,-1.0819,-1.0854,-1.0865,-1.1028,-1.1099,-1.1192,-1.1199,-1.1237,-1.1255,-1.1253,-1.1283,-1.1285,-1.1287,-1.1297,-1.1301,-1.1266,-1.1266,-1.1267,-1.1267,0,-1.0258,-1.0329,-1.0361,-1.0476,-1.0533,-1.0593,-1.0683,-1.0731,-1.0778,-1.0841,-1.0926,-1.1013,-1.1108,-1.1134,-1.118,-1.1235,-1.1239,-1.1266,-1.1286,-1.1283,-1.1294,-1.1299,-1.1262,-1.1263,-1.1264,-1.1264,0,0,-1.0212,-1.037,-1.0381,-1.0434,-1.0551,-1.0607,-1.0672,-1.0764,-1.0804,-1.0884,-1.0941,-1.1048,-1.1073,-1.113,-1.1185,-1.1221,-1.1236,-1.1244,-1.1247,-1.124,-1.1302,-1.1281,-1.1285,-1.1265,-1.1266,-1.1267,-1.1294,0,-1.023,-1.0349,-1.0423,-1.0512,-1.0579,-1.065,-1.0707,-1.0784,-1.0845,-1.091,-1.0978,-1.1052,-1.108,-1.1115,-1.1153,-1.1226,-1.125,-1.1225,-1.1319,-1.1322,-1.1293,-1.1291,-1.127,-1.1291,-1.1299,-1.13,-1.13,0,-1.0266,-1.0345,-1.044,-1.055,-1.0581,-1.063,-1.0721,-1.0783,-1.0873,-1.0914,-1.0978,-1.1033,-1.1104,-1.1118,-1.1217,-1.1199,-1.1242,-1.1283,-1.1286,-1.1298,-1.1311,-1.1304,-1.13,-1.1303,-1.1308,-1.1307,-1.1307,0,-1.0224,-1.0354,-1.0428,-1.0471,-1.0601,-1.0634,-1.0689,-1.0779,-1.083,-1.0909,-1.0944,-1.103,-1.1078,-1.1144,-1.1221,-1.1223,-1.1313,-1.1333,-1.135,-1.1348,-1.1367,-1.1365,-1.137,-1.1392,-1.1392,-1.1392,-1.1392,0,-1.0237,-1.0292,-1.0411,-1.0457,-1.0522,-1.0606,-1.0668,-1.0729,-1.0808,-1.0868,-1.0935,-1.0989,-1.1087,-1.1153,-1.1214,-1.1288,-1.1309,-1.1345,-1.136,-1.1339,-1.1335,-1.1369,-1.137,-1.1393,-1.1393,-1.1393,-1.1393,0,-1.0201,-1.0283,-1.0368,-1.0484,-1.0514,-1.0557,-1.0656,-1.0703,-1.0767,-1.0841,-1.0863,-1.0964,-1.1045,-1.1128,-1.1239,-1.128,-1.1352,-1.1373,-1.1321,-1.133,-1.1343,-1.1341,-1.1372,-1.138,-1.1395,-1.1395,-1.1395,0,-1.0203,-1.0248,-1.0368,-1.0413,-1.0466,-1.0537,-1.0589,-1.0674,-1.0726,-1.0832,-1.0866,-1.0952,-1.1026,-1.1153,-1.1236,-1.1321,-1.1345,-1.135,-1.1358,-1.1336,-1.1346,-1.1343,-1.1348,-1.1347,-1.1346,-1.1346,-1.1345,0,-1.02,-1.0238,-1.0311,-1.0398,-1.0458,-1.0531,-1.0606,-1.0639,-1.0738,-1.0793,-1.0877,-1.0934,-1.1047,-1.1132,-1.1226,-1.1284,-1.1332,-1.1342,-1.1351,-1.133,-1.1299,-1.1317,-1.1313,-1.1341,-1.1342,-1.1342,-1.1342,-1.1342,-1.0184,-1.0227,-1.0319,-1.0398,-1.0463,-1.0532,-1.0582,-1.0652,-1.0723,-1.0821,-1.0867,-1.0951,-1.1041,-1.1173,-1.1229,-1.1297,-1.131,-1.1322,-1.1326,-1.1327,-1.1323,-1.1287,-1.1314,-1.1314,-1.1315,-1.1315,-1.1315,0,-1.0185,-1.0247,-1.0318,-1.0421,-1.0484,-1.0522,-1.0607,-1.0657,-1.073,-1.0809,-1.088,-1.0977,-1.106,-1.1149,-1.1238,-1.1274,-1.1298,-1.1295,-1.1293,-1.1306,-1.1306,-1.129,-1.1274,-1.1274,-1.1274,-1.1274,-1.1274,-1.1274,-1.0192,-1.0267,-1.0316,-1.0424,-1.0487,-1.057,-1.0615,-1.0679,-1.0743,-1.0847,-1.0916,-1.0974,-1.1058,-1.1153,-1.123,-1.1255,-1.1284,-1.1275,-1.1305,-1.1303,-1.1306,-1.1309,-1.1294,-1.128,-1.128,-1.13,-1.1301,-1.1301]}]]